[[{"header":{"parameterUnit":"m.s-1","parameterCategory":1,"la1":30.2991,"la2":30.254,"lo1":-89.0895,"lo2":-89.0444,"dy":0.0017,"dx":0.0017,"nx":28,"ny":28,"refTime":"2025-01-01T09:00:00:Z","depth":0,"parameterNumber":2,"parameterNumberName":"U-component_of_WINDS"},"data":[0,0,0,0,0,0,0,0,0,0,0,0,0,0,0,0,0,0,0,0,0,0,0,0,0,0,0,0,0,0,0,0,0,0,0,0,0,0,0,0,0,0,0,0,0,0,0,0,0,0,0,0,0,0,0,0,0,0,-0.7891,-0.7892,0,-0.7933,-0.7933,-0.7934,-0.7897,-0.7896,-0.7894,-0.7893,-0.7938,-0.794,-0.7943,0,0,0,0,0,0,0,0,0,0,0,0,0,-0.7782,-0.7784,-0.7891,-0.7892,-0.7892,-0.7933,-0.7933,-0.7934,-0.7898,-0.7896,-0.7894,-0.7892,-0.7937,-0.794,-0.7943,0,0,0,0,0,0,0,0,0,0,0,0,0,-0.7827,-0.7785,-0.7891,-0.7879,-0.7878,-0.7933,-0.7933,-0.7934,-0.7898,-0.7896,-0.7893,-0.7891,-0.7936,-0.794,-0.7944,-0.8013,0,0,-0.7956,-0.7957,0,0,0,0,0,0,0,0,-0.7825,-0.7831,-0.788,-0.788,-0.7879,-0.7907,-0.7911,-0.796,-0.7899,-0.7891,-0.7893,-0.789,-0.793,-0.7934,-0.7947,-0.8015,-0.8017,-0.7956,-0.7958,-0.796,-0.7961,0,0,0,0,0,0,0,-0.7821,-0.7829,-0.7908,-0.7881,-0.788,-0.7872,-0.7876,-0.792,-0.7922,-0.7891,-0.7889,-0.7894,-0.7929,-0.7943,-0.7948,-0.8017,-0.7956,-0.7959,-0.7962,-0.7963,-0.8144,-0.8146,0,0,0,0,0,0,-0.7819,-0.7827,-0.7906,-0.7909,-0.7846,-0.7876,-0.788,-0.7901,-0.7922,-0.7923,-0.7896,-0.7892,-0.7938,-0.7943,-0.7949,-0.8031,-0.796,-0.7964,-0.7966,-0.8141,-0.8144,-0.8147,0,0,0,0,0,0,-0.7817,-0.7827,-0.7905,-0.7867,-0.7876,-0.788,-0.7903,-0.7903,-0.7917,-0.7925,-0.7926,-0.791,-0.7936,-0.7944,-0.7997,-0.8032,-0.7965,-0.7969,-0.8138,-0.8142,-0.8146,-0.8197,0,0,0,0,0,0,-0.7814,-0.7826,-0.7852,-0.7868,-0.7878,-0.7952,-0.7906,-0.7905,-0.7923,-0.7919,-0.7938,-0.794,-0.7935,-0.7991,-0.8001,-0.8037,-0.7972,-0.8135,-0.814,-0.8145,-0.8192,-0.8202,-0.821,0,0,0,0,0,-0.781,-0.7866,-0.7854,-0.7864,-0.7911,-0.7954,-0.796,-0.7953,-0.7926,-0.7953,-0.7958,-0.7939,-0.8027,-0.7997,-0.8007,-0.8045,-0.8133,-0.8139,-0.8144,-0.8188,-0.82,-0.821,0,0,0,0,0,0,-0.7855,-0.7868,-0.7855,-0.7916,-0.7934,-0.7948,-0.7981,-0.7966,-0.7992,-0.7987,-0.7977,-0.7982,-0.8038,-0.8047,-0.8014,-0.8113,-0.8076,-0.8084,-0.8105,-0.8117,-0.8126,-0.8123,-0.7975,0,0,0,0,0,-0.7872,-0.7905,-0.7914,-0.7968,-0.7977,-0.7978,-0.7996,-0.7989,-0.8007,-0.8015,-0.8024,-0.8043,-0.8075,-0.8096,-0.8126,-0.8192,-0.8196,-0.8223,-0.8232,-0.824,-0.8247,-0.8283,-0.8295,-0.8165,-0.8165,-0.8165,0,0,-0.7908,-0.7919,-0.794,-0.7977,-0.799,-0.8025,-0.7984,-0.8023,-0.8049,-0.8021,-0.8072,-0.8079,-0.8099,-0.816,-0.8187,-0.8169,-0.8283,-0.8247,-0.8253,-0.8256,-0.829,-0.8302,-0.8313,-0.8169,-0.8168,-0.8168,0,0,-0.7991,-0.8002,-0.8048,-0.8061,-0.8081,-0.808,-0.8091,-0.8107,-0.811,-0.8161,-0.814,-0.8171,-0.8226,-0.8241,-0.8256,-0.8344,-0.8327,-0.8354,-0.8402,-0.8437,-0.8447,-0.8456,-0.8487,-0.8499,-0.8361,-0.8361,-0.8361,0,-0.8033,-0.8084,-0.8074,-0.8114,-0.8131,-0.8105,-0.8152,-0.8166,-0.8194,-0.8207,-0.8186,-0.8253,-0.8266,-0.8329,-0.835,-0.8363,-0.8376,-0.8352,-0.8446,-0.8455,-0.8463,-0.8493,-0.8505,-0.8364,-0.8364,-0.8363,-0.8363,0,-0.8136,-0.8171,-0.8206,-0.8233,-0.8254,-0.8297,-0.8293,-0.8316,-0.8306,-0.8308,-0.836,-0.8373,-0.8405,-0.8419,-0.841,-0.8481,-0.8469,-0.8447,-0.841,-0.8479,-0.8507,-0.8518,-0.8368,-0.8367,-0.8366,-0.8366,0,0,-0.825,-0.8269,-0.8283,-0.8294,-0.8313,-0.8341,-0.8383,-0.8413,-0.8432,-0.8452,-0.8488,-0.8534,-0.8513,-0.853,-0.8523,-0.8554,-0.8622,-0.8528,-0.8528,-0.8546,-0.8701,-0.8718,-0.8732,-0.8611,-0.8613,-0.8615,-0.8699,0,-0.8334,-0.8406,-0.8397,-0.8467,-0.8499,-0.8475,-0.8511,-0.8527,-0.853,-0.8558,-0.8561,-0.8594,-0.8564,-0.8574,-0.8603,-0.8608,-0.8654,-0.8601,-0.8644,-0.8646,-0.8641,-0.8746,-0.8765,-0.8844,-0.871,-0.8712,-0.8713,0,-0.8443,-0.8465,-0.8538,-0.8551,-0.8564,-0.8597,-0.8624,-0.8651,-0.8668,-0.8668,-0.8686,-0.8673,-0.8715,-0.8676,-0.8734,-0.8699,-0.8716,-0.872,-0.8723,-0.8728,-0.8685,-0.8755,-0.8869,-0.8882,-0.8731,-0.8729,-0.8728,0,-0.8519,-0.8568,-0.8618,-0.8629,-0.8645,-0.8669,-0.8677,-0.8692,-0.871,-0.8733,-0.8745,-0.8773,-0.8789,-0.8811,-0.8806,-0.8778,-0.8865,-0.8826,-0.8867,-0.8867,-0.8887,-0.8886,-0.9007,-0.8896,-0.8896,-0.8896,-0.8896,0,-0.8615,-0.866,-0.8652,-0.8683,-0.8733,-0.8722,-0.8772,-0.8777,-0.879,-0.8822,-0.8802,-0.8832,-0.8823,-0.8852,-0.8849,-0.8897,-0.8904,-0.8906,-0.8904,-0.8908,-0.8908,-0.892,-0.8914,-0.8899,-0.8899,-0.8898,-0.8897,0,-0.871,-0.8706,-0.8759,-0.8769,-0.8773,-0.881,-0.8819,-0.8848,-0.8848,-0.8888,-0.8896,-0.8897,-0.8931,-0.8927,-0.8965,-0.8963,-0.9023,-0.9015,-0.9017,-0.9016,-0.9057,-0.9054,-0.9191,-0.9208,-0.9085,-0.9087,-0.9088,0,-0.8772,-0.8806,-0.882,-0.8839,-0.8848,-0.888,-0.8898,-0.8888,-0.8908,-0.8929,-0.8956,-0.8987,-0.9012,-0.9067,-0.9071,-0.91,-0.9093,-0.9139,-0.9097,-0.9099,-0.9094,-0.9092,-0.9096,-0.9147,-0.9149,-0.915,-0.9151,0,-0.8882,-0.8878,-0.8905,-0.8931,-0.8953,-0.8973,-0.8992,-0.9009,-0.9,-0.9024,-0.9057,-0.9076,-0.9114,-0.9146,-0.9173,-0.9182,-0.9165,-0.9163,-0.9175,-0.9179,-0.918,-0.918,-0.9041,-0.9161,-0.916,-0.9159,-0.9159,-0.9158,-0.8963,-0.8992,-0.9006,-0.9036,-0.9049,-0.9066,-0.9093,-0.9096,-0.9124,-0.9153,-0.9146,-0.9184,-0.9199,-0.9234,-0.9245,-0.9274,-0.9258,-0.9274,-0.9278,-0.9282,-0.9287,-0.9174,-0.9279,-0.9279,-0.9279,-0.9278,-0.9278,0,-0.9073,-0.908,-0.9108,-0.9133,-0.9157,-0.9138,-0.9157,-0.9178,-0.9212,-0.9227,-0.9252,-0.929,-0.932,-0.9326,-0.9355,-0.9378,-0.9371,-0.9386,-0.9384,-0.9387,-0.9301,-0.9288,-0.9391,-0.9391,-0.9391,-0.939,-0.939,-0.939,-0.9133,-0.9181,-0.9178,-0.9232,-0.9239,-0.9276,-0.9288,-0.9304,-0.9316,-0.936,-0.9384,-0.9387,-0.9399,-0.9428,-0.9455,-0.9456,-0.9468,-0.9486,-0.9484,-0.9404,-0.9393,-0.9382,-0.937,-0.9488,-0.9489,-0.9568,-0.9568,-0.9569]},{"header":{"parameterUnit":"m.s-1","parameterCategory":1,"la1":30.2991,"la2":30.254,"lo1":-89.0895,"lo2":-89.0444,"dy":0.0017,"dx":0.0017,"nx":28,"ny":28,"refTime":"2025-01-01T09:00:00:Z","depth":0,"parameterNumber":3,"parameterNumberName":"V-component_of_WINDS"},"data":[0,0,0,0,0,0,0,0,0,0,0,0,0,0,0,0,0,0,0,0,0,0,0,0,0,0,0,0,0,0,0,0,0,0,0,0,0,0,0,0,0,0,0,0,0,0,0,0,0,0,0,0,0,0,0,0,0,0,-3.932,-3.9321,0,-3.9437,-3.9438,-3.944,-3.94,-3.9398,-3.9395,-3.9393,-3.951,-3.9515,-3.952,0,0,0,0,0,0,0,0,0,0,0,0,0,-3.9059,-3.9064,-3.932,-3.9321,-3.9323,-3.9437,-3.9438,-3.944,-3.9401,-3.9398,-3.9395,-3.9392,-3.9508,-3.9514,-3.9521,0,0,0,0,0,0,0,0,0,0,0,0,0,-3.9174,-3.9066,-3.932,-3.9317,-3.9318,-3.9436,-3.9438,-3.944,-3.9402,-3.9398,-3.9394,-3.939,-3.9506,-3.9514,-3.9522,-3.9649,0,0,-3.9547,-3.955,0,0,0,0,0,0,0,0,-3.9167,-3.9183,-3.9316,-3.9318,-3.9319,-3.94,-3.9389,-3.951,-3.9403,-3.937,-3.9393,-3.9389,-3.9476,-3.9487,-3.9517,-3.9654,-3.9659,-3.9548,-3.9553,-3.9556,-3.9558,0,0,0,0,0,0,0,-3.9159,-3.9178,-3.9366,-3.9318,-3.932,-3.9309,-3.9321,-3.9412,-3.9443,-3.9372,-3.937,-3.9384,-3.9476,-3.9509,-3.9519,-3.9661,-3.9547,-3.9555,-3.956,-3.9563,-3.9907,-3.9911,0,0,0,0,0,0,-3.9151,-3.9172,-3.9362,-3.937,-3.9232,-3.9317,-3.933,-3.9378,-3.9442,-3.9448,-3.9387,-3.9382,-3.9497,-3.951,-3.9523,-3.9675,-3.9556,-3.9564,-3.9568,-3.9903,-3.9908,-3.9912,0,0,0,0,0,0,-3.9146,-3.9169,-3.9358,-3.927,-3.9293,-3.9325,-3.9379,-3.9382,-3.9415,-3.9453,-3.9458,-3.9416,-3.9494,-3.9512,-3.9618,-3.9679,-3.9567,-3.9575,-3.9898,-3.9904,-3.991,-3.9981,0,0,0,0,0,0,-3.9138,-3.9167,-3.9216,-3.9272,-3.9298,-3.9452,-3.9383,-3.9387,-3.943,-3.9424,-3.9481,-3.9487,-3.9493,-3.9606,-3.9626,-3.9688,-3.9581,-3.9892,-3.99,-3.9908,-3.9973,-3.9989,-4.0002,0,0,0,0,0,-3.9129,-3.9231,-3.9219,-3.9242,-3.9361,-3.9455,-3.947,-3.9476,-3.9435,-3.9484,-3.9508,-3.9485,-3.9669,-3.9617,-3.9639,-3.9705,-3.9888,-3.9898,-3.9907,-3.9967,-3.9986,-4.0002,0,0,0,0,0,0,-3.9181,-3.9238,-3.9226,-3.9349,-3.9397,-3.9448,-3.9511,-3.9496,-3.9557,-3.9549,-3.9552,-3.9565,-3.9674,-3.97,-3.9641,-3.983,-3.9772,-3.9787,-3.981,-3.9828,-3.9842,-3.9834,-3.9588,0,0,0,0,0,-3.9207,-3.928,-3.9326,-3.943,-3.9455,-3.9479,-3.952,-3.952,-3.9571,-3.9591,-3.9623,-3.9672,-3.974,-3.9786,-3.9851,-3.9977,-3.9988,-4.0033,-4.0047,-4.0059,-4.0071,-4.0138,-4.0159,-3.9943,-3.9943,-3.9943,0,0,-3.9261,-3.9301,-3.9347,-3.9441,-3.9479,-3.9553,-3.9497,-3.9578,-3.9633,-3.9603,-3.9705,-3.9731,-3.9785,-3.9901,-3.9954,-3.9926,-4.0133,-4.0071,-4.008,-4.0086,-4.015,-4.0171,-4.0189,-3.995,-3.9949,-3.9947,0,0,-3.9398,-3.9436,-3.9527,-3.9566,-3.9624,-3.964,-3.9661,-3.9715,-3.9731,-3.9834,-3.9813,-3.9877,-3.9996,-4.0035,-4.0071,-4.0222,-4.0202,-4.0243,-4.0318,-4.0384,-4.0401,-4.0416,-4.0469,-4.0488,-4.0255,-4.0255,-4.0255,0,-3.9458,-3.957,-3.9575,-3.9658,-3.97,-3.9677,-3.9768,-3.9805,-3.9882,-3.991,-3.9878,-4.0026,-4.0061,-4.0186,-4.0223,-4.0253,-4.0276,-4.0236,-4.0398,-4.0414,-4.0428,-4.0478,-4.0498,-4.026,-4.0259,-4.0259,-4.0258,0,-3.964,-3.9718,-3.9784,-3.986,-3.9908,-3.9995,-4.0012,-4.0061,-4.0056,-4.0074,-4.0179,-4.022,-4.0293,-4.0323,-4.0319,-4.0447,-4.0428,-4.0397,-4.0339,-4.0453,-4.05,-4.052,-4.0266,-4.0265,-4.0263,-4.0262,0,0,-3.9813,-3.989,-3.9914,-3.9948,-4.001,-4.007,-4.0155,-4.0227,-4.0269,-4.0322,-4.0392,-4.0493,-4.0465,-4.0505,-4.0506,-4.0563,-4.0679,-4.0526,-4.0527,-4.0552,-4.0822,-4.0845,-4.0867,-4.0667,-4.067,-4.0673,-4.0817,0,-3.9955,-4.0106,-4.0112,-4.0249,-4.0321,-4.03,-4.0374,-4.0419,-4.0438,-4.0501,-4.0521,-4.0592,-4.055,-4.0574,-4.063,-4.0654,-4.0734,-4.0643,-4.0731,-4.0734,-4.0718,-4.0892,-4.0917,-4.105,-4.0836,-4.0839,-4.0841,0,-4.014,-4.02,-4.0345,-4.0396,-4.0426,-4.0493,-4.0559,-4.062,-4.067,-4.068,-4.0725,-4.0717,-4.0802,-4.0741,-4.0858,-4.0797,-4.0833,-4.085,-4.0855,-4.0864,-4.0795,-4.0905,-4.1093,-4.1113,-4.0871,-4.0869,-4.0866,0,-4.0252,-4.0368,-4.047,-4.0499,-4.0562,-4.0609,-4.0637,-4.0684,-4.0727,-4.0784,-4.0812,-4.0878,-4.0915,-4.0966,-4.0975,-4.093,-4.1092,-4.1032,-4.1102,-4.1101,-4.1137,-4.1134,-4.1333,-4.1161,-4.116,-4.116,-4.116,0,-4.0409,-4.0498,-4.052,-4.0583,-4.0681,-4.0687,-4.0784,-4.0809,-4.0851,-4.0916,-4.0902,-4.0963,-4.0972,-4.1035,-4.1043,-4.1139,-4.1155,-4.1164,-4.1165,-4.1166,-4.1165,-4.1189,-4.118,-4.1165,-4.1164,-4.1163,-4.1162,0,-4.055,-4.0569,-4.0678,-4.0729,-4.0743,-4.0814,-4.0856,-4.0915,-4.0932,-4.1016,-4.1035,-4.1062,-4.1136,-4.115,-4.1237,-4.1242,-4.1356,-4.1347,-4.1339,-4.1338,-4.1407,-4.14,-4.1629,-4.1659,-4.1467,-4.1468,-4.147,0,-4.065,-4.0718,-4.0776,-4.0819,-4.085,-4.092,-4.0964,-4.0972,-4.1018,-4.108,-4.1131,-4.1204,-4.1262,-4.1381,-4.1407,-4.1473,-4.1466,-4.1542,-4.1476,-4.1474,-4.1467,-4.1462,-4.1469,-4.1554,-4.1556,-4.1558,-4.1559,0,-4.0823,-4.0829,-4.0894,-4.0961,-4.1014,-4.1067,-4.1118,-4.1154,-4.1168,-4.1221,-4.1296,-4.1342,-4.1431,-4.1503,-4.1569,-4.1596,-4.158,-4.158,-4.1599,-4.16,-4.1593,-4.1597,-4.1373,-4.1574,-4.1573,-4.1572,-4.1571,-4.157,-4.0947,-4.1006,-4.1056,-4.1128,-4.1167,-4.1214,-4.1272,-4.1297,-4.136,-4.1434,-4.1435,-4.1517,-4.1565,-4.1652,-4.1684,-4.1747,-4.1723,-4.1752,-4.1759,-4.1766,-4.1772,-4.1583,-4.1759,-4.1759,-4.1758,-4.1758,-4.1758,0,-4.1119,-4.1151,-4.1217,-4.1288,-4.1344,-4.1325,-4.138,-4.1428,-4.1502,-4.1548,-4.1606,-4.1692,-4.1762,-4.1793,-4.1861,-4.1906,-4.19,-4.1924,-4.192,-4.1927,-4.179,-4.1766,-4.1927,-4.1927,-4.1927,-4.1927,-4.1927,-4.1927,-4.1216,-4.1315,-4.1327,-4.1445,-4.1475,-4.1557,-4.1589,-4.1632,-4.1669,-4.1767,-4.1825,-4.1846,-4.1886,-4.1956,-4.2018,-4.2026,-4.2051,-4.2078,-4.2082,-4.1953,-4.1936,-4.192,-4.1898,-4.2083,-4.2084,-4.2213,-4.2214,-4.2215]}]]